This is the latest recevied weather packets stored in our database for station/object KI6SYE. If no packets are shown the sender has not sent any weather packets the latest 10 day(s).
| Time | Temp. | Humidity | Pressure | Rain* | Wind** | Luminosity | Snow |
|---|---|---|---|---|---|---|---|
| 1777745099 | 16.67° C | 84% | 1014.4 hPa | 0 mm | - | 230 W/m² | - |
| 1777744795 | 16.67° C | 84% | 1014.7 hPa | 0 mm | - | 243 W/m² | - |
| 1777744490 | 16.67° C | 84% | 1014.4 hPa | 0 mm | - | 250 W/m² | - |
| 1777744187 | 16.67° C | 84% | 1014.6 hPa | 0 mm | - | 226 W/m² | - |
| 1777743884 | 16.67° C | 85% | 1014.6 hPa | 0 mm | - | 221 W/m² | - |
| 1777743580 | 16.11° C | 86% | 1014.7 hPa | 0 mm | - | 213 W/m² | - |
| 1777743277 | 16.11° C | 87% | 1014.8 hPa | 0 mm | - | 175 W/m² | - |
| 1777742976 | 16.11° C | 87% | 1014.9 hPa | 0 mm | - | 165 W/m² | - |
| 1777742673 | 16.11° C | 87% | 1015 hPa | 0 mm | - | 144 W/m² | - |
| 1777742369 | 16.11° C | 87% | 1015 hPa | 0 mm | - | 153 W/m² | - |
| 1777742065 | 16.11° C | 87% | 1014.9 hPa | 0 mm | - | 146 W/m² | - |
| 1777741763 | 16.11° C | 87% | 1014.9 hPa | 0 mm | - | 140 W/m² | - |
| 1777741459 | 16.11° C | 88% | 1015 hPa | 0 mm | - | 135 W/m² | - |
| 1777741155 | 15.56° C | 88% | 1014.9 hPa | 0 mm | - | 135 W/m² | - |
| 1777740852 | 15.56° C | 89% | 1015 hPa | 0 mm | - | 133 W/m² | - |
| 1777740549 | 15.56° C | 89% | 1015 hPa | 0 mm | - | 110 W/m² | - |
| 1777740245 | 15.56° C | 88% | 1014.9 hPa | 0 mm | - | 98 W/m² | - |
| 1777739942 | 15.56° C | 88% | 1014.9 hPa | 0 mm | - | 94 W/m² | - |
| 1777739638 | 16.11° C | 88% | 1015.1 hPa | 0 mm | - | 90 W/m² | - |
| 1777739336 | 15.56° C | 88% | 1015.1 hPa | 0 mm | - | 92 W/m² | - |
| 1777739032 | 15.56° C | 89% | 1015.1 hPa | 0 mm | - | 87 W/m² | - |
| 1777738729 | 15.56° C | 89% | 1015 hPa | 0 mm | - | 81 W/m² | - |
| 1777738425 | 15.56° C | 89% | 1015 hPa | 0 mm | - | 78 W/m² | - |
| 1777738124 | 15.56° C | 89% | 1015.1 hPa | 0 mm | - | 68 W/m² | - |
| 1777737822 | 15.56° C | 89% | 1015.1 hPa | 0 mm | - | 66 W/m² | - |
* Rain latest hour (hover to see other rain measurements)
** Current wind speed in m/s (hover to see current wind gust speed)